,,,PA_Meas_PMT16A,,PR_Meas_QMR101_102,,RH_Meas_QMH101,,SR_Meas_QMS101,,TA_Meas_QMH101,,GenWind,,GenWind,
date,time,status,PA,status,PR,status,RH,status,SR,status,TA,status,DirAvg,status,SpdAvg,
2008-07-22, 06:38:04,VALID,1003.54,VALID,0,VALID,95.6814,VALID,62.2485,VALID,23.9584,VALID,351,VALID,0.789063,
2008-07-22, 06:39:04,VALID,1003.54,VALID,0,VALID,95.689,VALID,63.5558,VALID,23.9973,VALID,340,VALID,0.639844,
2008-07-22, 06:40:04,VALID,1003.54,VALID,0,VALID,95.773,VALID,65.1648,VALID,24.0557,VALID,342,VALID,0.714844,
2008-07-22, 06:41:04,VALID,1003.58,VALID,0,VALID,95.7424,VALID,66.0699,VALID,24.0929,VALID,358,VALID,0.522656,
2008-07-22, 06:42:04,VALID,1003.6,VALID,0,VALID,95.7272,VALID,66.6732,VALID,24.1336,VALID,350,VALID,0.589063,
2008-07-22, 06:43:04,VALID,1003.61,VALID,0,VALID,95.6051,VALID,66.9749,VALID,24.1726,VALID,351,VALID,0.897266,
2008-07-22, 06:44:04,VALID,1003.63,VALID,0,VALID,95.5822,VALID,66.6732,VALID,24.231,VALID,357,VALID,0.287109,
2008-07-22, 06:45:04,VALID,1003.65,VALID,0,VALID,95.5212,VALID,66.0699,VALID,24.2699,VALID,344,VALID,0.348047,
2008-07-22, 06:46:04,VALID,1003.66,VALID,0,VALID,95.5212,VALID,65.7682,VALID,24.3478,VALID,345,VALID,0.125391,
2008-07-22, 06:47:04,VALID,1003.66,VALID,0,VALID,95.5517,VALID,65.8687,VALID,24.4257,VALID,344,VALID,0.236328,
2008-07-22, 06:48:04,VALID,1003.65,VALID,0,VALID,95.4144,VALID,66.6732,VALID,24.4628,VALID,347,VALID,0.320703,
2008-07-22, 06:49:04,VALID,1003.66,VALID,0,VALID,95.2771,VALID,67.7794,VALID,24.562,VALID,347,VALID,0,
2008-07-22, 06:50:04,VALID,1003.67,VALID,0,VALID,95.1093,VALID,69.1873,VALID,24.5601,VALID,347,VALID,0,
2008-07-22, 06:51:04,VALID,1003.69,VALID,0,VALID,95.1703,VALID,71.5003,VALID,24.6788,VALID,347,VALID,0,
2008-07-22, 06:52:04,VALID,1003.71,VALID,0,VALID,94.9948,VALID,81.9588,VALID,24.7353,VALID,351,VALID,0.429688,
2008-07-22, 06:53:04,VALID,1003.73,VALID,0,VALID,94.7049,VALID,131.134,VALID,24.8151,VALID,351,VALID,0.353906,
2008-07-22, 06:54:04,VALID,1003.75,VALID,0,VALID,94.4989,VALID,184.332,VALID,24.9125,VALID,351,VALID,0.334766,
2008-07-22, 06:55:04,VALID,1003.78,VALID,0,VALID,94.1022,VALID,198.109,VALID,24.893,VALID,339,VALID,0.176953,
2008-07-22, 06:56:04,VALID,1003.77,VALID,0,VALID,94.3158,VALID,202.835,VALID,25.0293,VALID,339,VALID,0.188672,
2008-07-22, 06:57:04,VALID,1003.81,VALID,0,VALID,93.4462,VALID,210.378,VALID,25.0274,VALID,350,VALID,0.441016,
2008-07-22, 06:58:04,VALID,1003.8,VALID,0,VALID,93.2402,VALID,213.495,VALID,25.1286,VALID,350,VALID,0.755859,
2008-07-22, 06:59:04,VALID,1003.8,VALID,0,VALID,93.1791,VALID,220.333,VALID,25.148,VALID,355,VALID,0.616406,
2008-07-22, 07:00:04,VALID,1003.82,VALID,0,VALID,92.546,VALID,226.669,VALID,25.1267,VALID,353,VALID,0.649219,
2008-07-22, 07:01:04,VALID,1003.83,VALID,0,VALID,92.5154,VALID,231.798,VALID,25.1461,VALID,360,VALID,0.477344,
2008-07-22, 07:02:04,VALID,1003.88,VALID,0,VALID,91.928,VALID,233.708,VALID,25.1461,VALID,5,VALID,0.749609,
2008-07-22, 07:03:04,VALID,1003.87,VALID,0,VALID,92.3552,VALID,234.111,VALID,25.224,VALID,18,VALID,0.530078,
2008-07-22, 07:04:04,VALID,1003.87,VALID,0,VALID,91.4092,VALID,234.613,VALID,25.2435,VALID,347,VALID,0.580078,
2008-07-22, 07:05:04,VALID,1003.9,VALID,0,VALID,91.4398,VALID,235.217,VALID,25.2435,VALID,344,VALID,0.36875,
2008-07-22, 07:06:04,VALID,1003.91,VALID,0,VALID,91.2567,VALID,240.748,VALID,25.2825,VALID,350,VALID,0.847656,
2008-07-22, 07:07:04,VALID,1003.93,VALID,0,VALID,91.0888,VALID,247.586,VALID,25.3409,VALID,4,VALID,0.676172,
2008-07-22, 07:08:04,VALID,1003.93,VALID,0,VALID,91.394,VALID,253.419,VALID,25.4597,VALID,2,VALID,0.437891,
2008-07-22, 07:09:04,VALID,1003.94,VALID,0,VALID,90.5472,VALID,257.843,VALID,25.4577,VALID,5,VALID,0.517187,
2008-07-22, 07:10:04,VALID,1003.94,VALID,0,VALID,91.0202,VALID,262.369,VALID,25.4967,VALID,2,VALID,0.473047,
2008-07-22, 07:11:04,VALID,1003.91,VALID,0,VALID,91.1575,VALID,268.101,VALID,25.6155,VALID,360,VALID,0.265234,
2008-07-22, 07:12:04,VALID,1003.94,VALID,0,VALID,90.8829,VALID,272.928,VALID,25.7304,VALID,360,VALID,0.271875,
2008-07-22, 07:13:04,VALID,1003.92,VALID,0,VALID,89.2655,VALID,277.051,VALID,25.709,VALID,338,VALID,0.660156,
2008-07-22, 07:14:04,VALID,1003.94,VALID,0,VALID,89.6775,VALID,280.671,VALID,25.7304,VALID,355,VALID,0.503516,
2008-07-22, 07:15:04,VALID,1003.95,VALID,0,VALID,89.4334,VALID,284.895,VALID,25.8083,VALID,352,VALID,0.761328,
2008-07-22, 07:16:04,VALID,1003.95,VALID,0,VALID,89.113,VALID,290.024,VALID,25.8668,VALID,352,VALID,0.227344,
2008-07-22, 07:17:04,VALID,1003.96,VALID,0,VALID,89.1892,VALID,299.476,VALID,25.9642,VALID,17,VALID,0.0382813,
2008-07-22, 07:18:04,VALID,1003.96,VALID,0,VALID,88.9375,VALID,306.818,VALID,26.081,VALID,346,VALID,0.386328,
2008-07-22, 07:19:04,VALID,1004,VALID,0,VALID,87.7855,VALID,311.745,VALID,26.1415,VALID,1,VALID,0.611719,
2008-07-22, 07:20:04,VALID,1003.99,VALID,0,VALID,87.9686,VALID,311.142,VALID,26.159,VALID,355,VALID,0.573047,
2008-07-22, 07:21:04,VALID,1003.99,VALID,0,VALID,87.549,VALID,308.427,VALID,26.2564,VALID,355,VALID,0.53125,
2008-07-22, 07:22:04,VALID,1003.98,VALID,0,VALID,86.8777,VALID,324.114,VALID,26.3343,VALID,354,VALID,0.412891,
2008-07-22, 07:23:04,VALID,1003.98,VALID,0,VALID,85.9927,VALID,330.249,VALID,26.4337,VALID,353,VALID,0.733594,
2008-07-22, 07:24:04,VALID,1003.96,VALID,0,VALID,86.3589,VALID,335.478,VALID,26.4727,VALID,339,VALID,0.664063,
2008-07-22, 07:25:04,VALID,1004,VALID,0,VALID,87.1218,VALID,341.009,VALID,26.6111,VALID,347,VALID,0.436719,
2008-07-22, 07:26:04,VALID,1004.02,VALID,0,VALID,85.2451,VALID,343.221,VALID,26.644,VALID,2,VALID,0.716406,
2008-07-22, 07:27:04,VALID,1004.02,VALID,0,VALID,86.6793,VALID,340.707,VALID,26.7434,VALID,357,VALID,0.126953,
2008-07-22, 07:28:04,VALID,1004.06,VALID,0,VALID,86.0156,VALID,311.343,VALID,26.9167,VALID,331,VALID,0.350781,
2008-07-22, 07:29:04,VALID,1004.06,VALID,0,VALID,85.1612,VALID,293.04,VALID,27.0357,VALID,356,VALID,0.549219,
2008-07-22, 07:30:04,VALID,1004.07,VALID,0,VALID,84.3983,VALID,290.526,VALID,27.0726,VALID,354,VALID,0.556641,
2008-07-22, 07:31:04,VALID,1004.09,VALID,0,VALID,83.4218,VALID,306.516,VALID,27.1136,VALID,2,VALID,0.541406,
2008-07-22, 07:32:04,VALID,1004.07,VALID,0,VALID,84.0321,VALID,324.315,VALID,27.1311,VALID,2,VALID,0.278125,
2008-07-22, 07:33:04,VALID,1004.13,VALID,0,VALID,82.3004,VALID,335.88,VALID,27.2521,VALID,43,VALID,0.369531,
2008-07-22, 07:34:04,VALID,1004.11,VALID,0,VALID,83.1014,VALID,358.306,VALID,27.2911,VALID,50,VALID,0.124219,
2008-07-22, 07:35:04,VALID,1004.14,VALID,0,VALID,81.3773,VALID,374.597,VALID,27.2911,VALID,73,VALID,0.507813,
2008-07-22, 07:36:04,VALID,1004.15,VALID,0,VALID,81.9113,VALID,380.329,VALID,27.3301,VALID,73,VALID,0.299609,
2008-07-22, 07:37:04,VALID,1004.15,VALID,0,VALID,81.5604,VALID,389.179,VALID,27.4059,VALID,73,VALID,0.287891,
2008-07-22, 07:38:04,VALID,1004.16,VALID,0,VALID,82.041,VALID,395.414,VALID,27.4449,VALID,78,VALID,0.242578,
2008-07-22, 07:39:04,VALID,1004.17,VALID,0,VALID,81.7511,VALID,399.235,VALID,27.6008,VALID,78,VALID,0.0488281,
2008-07-22, 07:40:04,VALID,1004.2,VALID,0,VALID,81.5985,VALID,400.442,VALID,27.7178,VALID,122,VALID,0.515234,
2008-07-22, 07:41:04,VALID,1004.21,VALID,0,VALID,80.8738,VALID,393.805,VALID,27.7372,VALID,91,VALID,0.364453,
2008-07-22, 07:42:04,VALID,1004.24,VALID,0,VALID,80.6754,VALID,379.022,VALID,27.7004,VALID,139,VALID,1.19102,
2008-07-22, 07:43:04,VALID,1004.23,VALID,0,VALID,79.5311,VALID,353.78,VALID,27.4839,VALID,141,VALID,1.84023,
2008-07-22, 07:44:04,VALID,1004.26,VALID,0,VALID,80.6525,VALID,347.043,VALID,27.2306,VALID,172,VALID,1.13125,
2008-07-22, 07:45:04,VALID,1004.29,VALID,0,VALID,82.0944,VALID,379.927,VALID,27.1136,VALID,130,VALID,0.963281,
2008-07-22, 07:46:04,VALID,1004.28,VALID,0,VALID,84.2152,VALID,407.38,VALID,27.1547,VALID,129,VALID,0.219922,
2008-07-22, 07:47:04,VALID,1004.27,VALID,0,VALID,83.8185,VALID,429.203,VALID,27.1936,VALID,118,VALID,0.488281,
2008-07-22, 07:48:04,VALID,1004.27,VALID,0,VALID,82.903,VALID,439.862,VALID,27.289,VALID,89,VALID,0.85,
2008-07-22, 07:49:04,VALID,1004.3,VALID,0,VALID,82.102,VALID,437.047,VALID,27.3496,VALID,107,VALID,0.997266,
2008-07-22, 07:50:04,VALID,1004.31,VALID,0,VALID,82.9488,VALID,444.89,VALID,27.3885,VALID,58,VALID,0.414063,
2008-07-22, 07:51:04,VALID,1004.31,VALID,0,VALID,81.0874,VALID,460.277,VALID,27.369,VALID,87,VALID,1.3418,
2008-07-22, 07:52:04,VALID,1004.3,VALID,0,VALID,83.2387,VALID,463.495,VALID,27.4254,VALID,121,VALID,0.71875,
2008-07-22, 07:53:04,VALID,1004.33,VALID,0,VALID,80.9501,VALID,456.154,VALID,27.4644,VALID,158,VALID,1.10156,
2008-07-22, 07:54:04,VALID,1004.3,VALID,0,VALID,80.3245,VALID,448.008,VALID,27.3885,VALID,164,VALID,0.371875,
2008-07-22, 07:55:04,VALID,1004.33,VALID,0,VALID,80.7898,VALID,448.511,VALID,27.3865,VALID,169,VALID,0.751953,
2008-07-22, 07:56:04,VALID,1004.32,VALID,0,VALID,81.3467,VALID,437.65,VALID,27.4254,VALID,175,VALID,0.762109,
2008-07-22, 07:57:04,VALID,1004.34,VALID,0,VALID,81.8808,VALID,414.42,VALID,27.447,VALID,162,VALID,0.130078,
2008-07-22, 07:58:04,VALID,1004.33,VALID,0,VALID,81.5604,VALID,376.508,VALID,27.4059,VALID,164,VALID,0.810547,
2008-07-22, 07:59:04,VALID,1004.33,VALID,0,VALID,80.7517,VALID,330.249,VALID,27.4059,VALID,189,VALID,0.756641,
2008-07-22, 08:00:04,VALID,1004.34,VALID,0,VALID,81.9799,VALID,286.403,VALID,27.4254,VALID,189,VALID,0.160547,
2008-07-22, 08:01:04,VALID,1004.32,VALID,0,VALID,81.0187,VALID,268.704,VALID,27.4254,VALID,65,VALID,0.950781,
2008-07-22, 08:02:04,VALID,1004.33,VALID,0,VALID,81.0569,VALID,258.246,VALID,27.367,VALID,93,VALID,0.864453,
2008-07-22, 08:03:04,VALID,1004.33,VALID,0,VALID,81.69,VALID,253.016,VALID,27.3085,VALID,119,VALID,0.367578,
2008-07-22, 08:04:04,VALID,1004.32,VALID,0,VALID,80.6296,VALID,246.681,VALID,27.2306,VALID,103,VALID,0.707812,
2008-07-22, 08:05:04,VALID,1004.32,VALID,0,VALID,80.9348,VALID,245.172,VALID,27.2111,VALID,98,VALID,0.962891,
2008-07-22, 08:06:04,VALID,1004.31,VALID,0,VALID,80.7288,VALID,249.296,VALID,27.1331,VALID,133,VALID,0.827734,
2008-07-22, 08:07:04,VALID,1004.32,VALID,0,VALID,81.2934,VALID,251.91,VALID,27.1157,VALID,142,VALID,0.901563,
2008-07-22, 08:08:04,VALID,1004.34,VALID,0,VALID,82.1783,VALID,261.464,VALID,27.0357,VALID,142,VALID,0.974609,
2008-07-22, 08:09:04,VALID,1004.34,VALID,0,VALID,82.9641,VALID,270.313,VALID,27.0552,VALID,172,VALID,1.17422,
2008-07-22, 08:10:04,VALID,1004.34,VALID,0,VALID,83.7956,VALID,269.006,VALID,27.0572,VALID,160,VALID,1.02813,
2008-07-22, 08:11:04,VALID,1004.35,VALID,0,VALID,83.5515,VALID,281.777,VALID,27.0162,VALID,174,VALID,1.0207,
2008-07-22, 08:12:04,VALID,1004.39,VALID,0,VALID,84.467,VALID,290.526,VALID,27.0357,VALID,161,VALID,0.703125,
2008-07-22, 08:13:04,VALID,1004.4,VALID,0,VALID,84.0169,VALID,303.197,VALID,27.0531,VALID,186,VALID,1.16367,
2008-07-22, 08:14:04,VALID,1004.39,VALID,0,VALID,83.3608,VALID,321.6,VALID,27.0552,VALID,167,VALID,0.838672,
2008-07-22, 08:15:04,VALID,1004.43,VALID,0,VALID,82.4224,VALID,338.998,VALID,27.0552,VALID,155,VALID,0.933984,
2008-07-22, 08:16:04,VALID,1004.39,VALID,0,VALID,84.8789,VALID,347.546,VALID,27.0942,VALID,175,VALID,1.19687,
2008-07-22, 08:17:04,VALID,1004.42,VALID,0,VALID,82.3156,VALID,340.305,VALID,27.1157,VALID,158,VALID,0.972266,
2008-07-22, 08:18:04,VALID,1004.43,VALID,0,VALID,83.0404,VALID,354.686,VALID,27.0942,VALID,178,VALID,1.36875,
2008-07-22, 08:19:04,VALID,1004.44,VALID,0,VALID,84.2991,VALID,210.88,VALID,27.0747,VALID,179,VALID,1.09883,
2008-07-22, 08:20:04,VALID,1004.51,VALID,0,VALID,83.6507,VALID,199.819,VALID,27.0552,VALID,180,VALID,1.3875,
2008-07-22, 08:21:04,VALID,1004.51,VALID,0,VALID,83.9406,VALID,191.07,VALID,27.0162,VALID,173,VALID,0.933594,
2008-07-22, 08:22:04,VALID,1004.52,VALID,0,VALID,83.2997,VALID,204.344,VALID,26.9578,VALID,191,VALID,0.909766,
2008-07-22, 08:23:04,VALID,1004.51,VALID,0,VALID,84.0779,VALID,169.147,VALID,26.9188,VALID,203,VALID,1.03398,
2008-07-22, 08:24:04,VALID,1004.51,VALID,0,VALID,85.1459,VALID,160.8,VALID,26.8993,VALID,194,VALID,0.847266,
2008-07-22, 08:25:04,VALID,1004.48,VALID,0,VALID,84.055,VALID,157.381,VALID,26.8798,VALID,141,VALID,1.13984,
2008-07-22, 08:26:04,VALID,1004.49,VALID,0,VALID,83.8185,VALID,157.482,VALID,26.8019,VALID,143,VALID,1.00742,
2008-07-22, 08:27:04,VALID,1004.51,VALID,0,VALID,84.9476,VALID,161.705,VALID,26.8214,VALID,158,VALID,0.803516,
2008-07-22, 08:28:04,VALID,1004.47,VALID,0,VALID,84.4899,VALID,169.147,VALID,26.7824,VALID,201,VALID,0.769141,
2008-07-22, 08:29:04,VALID,1004.49,VALID,0,VALID,84.0169,VALID,185.539,VALID,26.8019,VALID,156,VALID,0.921875,
2008-07-22, 08:30:04,VALID,1004.47,VALID,0,VALID,84.1542,VALID,208.366,VALID,26.8039,VALID,173,VALID,1.01133,
2008-07-22, 08:31:04,VALID,1004.48,VALID,0,VALID,84.116,VALID,219.529,VALID,26.7824,VALID,164,VALID,1.01172,
2008-07-22, 08:32:04,VALID,1004.45,VALID,0,VALID,83.9024,VALID,230.993,VALID,26.7824,VALID,140,VALID,0.695313,
2008-07-22, 08:33:04,VALID,1004.45,VALID,0,VALID,83.7117,VALID,244.67,VALID,26.7609,VALID,116,VALID,0.512891,
2008-07-22, 08:34:04,VALID,1004.48,VALID,0,VALID,83.0404,VALID,232.602,VALID,26.7998,VALID,217,VALID,0.865234,
2008-07-22, 08:35:04,VALID,1004.46,VALID,0,VALID,83.6812,VALID,234.915,VALID,26.8603,VALID,217,VALID,0.230859,
2008-07-22, 08:36:04,VALID,1004.46,VALID,0,VALID,83.5973,VALID,270.313,VALID,26.9188,VALID,218,VALID,0.599609,
2008-07-22, 08:37:04,VALID,1004.46,VALID,0,VALID,84.5661,VALID,243.865,VALID,26.9578,VALID,198,VALID,0.655469,
2008-07-22, 08:38:04,VALID,1004.43,VALID,0,VALID,83.2158,VALID,250.402,VALID,26.9578,VALID,194,VALID,0.655469,
2008-07-22, 08:39:04,VALID,1004.47,VALID,0,VALID,84.8484,VALID,220.233,VALID,26.9752,VALID,188,VALID,0.657031,
2008-07-22, 08:40:04,VALID,1004.49,VALID,0,VALID,83.8109,VALID,216.11,VALID,26.9947,VALID,167,VALID,0.891016,
2008-07-22, 08:41:04,VALID,1004.45,VALID,0,VALID,83.4294,VALID,197.305,VALID,27.0162,VALID,158,VALID,0.905469,
2008-07-22, 08:42:04,VALID,1004.45,VALID,0,VALID,82.3843,VALID,177.393,VALID,27.0142,VALID,167,VALID,0.950391,
2008-07-22, 08:43:04,VALID,1004.43,VALID,0,VALID,83.3989,VALID,166.029,VALID,27.0377,VALID,165,VALID,0.699219,
2008-07-22, 08:44:04,VALID,1004.44,VALID,0,VALID,82.3156,VALID,154.967,VALID,27.0162,VALID,189,VALID,0.927344,
2008-07-22, 08:45:04,VALID,1004.44,VALID,0,VALID,82.7199,VALID,143.202,VALID,26.9967,VALID,221,VALID,1.38633,
2008-07-22, 08:46:04,VALID,1004.45,VALID,0,VALID,83.3379,VALID,131.536,VALID,26.9598,VALID,183,VALID,1.27617,
2008-07-22, 08:47:04,VALID,1004.47,VALID,0,VALID,83.5973,VALID,123.491,VALID,26.9013,VALID,165,VALID,1.33516,
2008-07-22, 08:48:04,VALID,1004.49,VALID,0,VALID,83.6736,VALID,117.86,VALID,26.8039,VALID,148,VALID,1.26484,
2008-07-22, 08:49:04,VALID,1004.5,VALID,0,VALID,84.116,VALID,114.541,VALID,26.7434,VALID,152,VALID,0.767969,
2008-07-22, 08:50:04,VALID,1004.53,VALID,0,VALID,83.7041,VALID,113.033,VALID,26.7239,VALID,189,VALID,1.28945,
2008-07-22, 08:51:04,VALID,1004.54,VALID,0,VALID,84.3144,VALID,110.82,VALID,26.685,VALID,170,VALID,1.4125,
2008-07-22, 08:52:04,VALID,1004.55,VALID,0,VALID,84.9552,VALID,107.301,VALID,26.683,VALID,169,VALID,1.04297,
2008-07-22, 08:53:04,VALID,1004.53,VALID,0,VALID,85.4129,VALID,103.781,VALID,26.6655,VALID,168,VALID,0.839844,
2008-07-22, 08:54:04,VALID,1004.54,VALID,0,VALID,85.4663,VALID,100.261,VALID,26.644,VALID,178,VALID,0.880078,
2008-07-22, 08:55:04,VALID,1004.53,VALID,0,VALID,85.5655,VALID,97.7472,VALID,26.5855,VALID,169,VALID,0.709375,
2008-07-22, 08:56:04,VALID,1004.55,VALID,0,VALID,84.0321,VALID,96.8421,VALID,26.5466,VALID,204,VALID,1.14727,
2008-07-22, 08:57:04,VALID,1004.57,VALID,0,VALID,84.6195,VALID,99.859,VALID,26.5076,VALID,204,VALID,1.38867,
2008-07-22, 08:58:04,VALID,1004.59,VALID,0,VALID,84.8942,VALID,105.792,VALID,26.4472,VALID,184,VALID,0.892578,
2008-07-22, 08:59:04,VALID,1004.56,VALID,0,VALID,85.4206,VALID,113.033,VALID,26.4492,VALID,173,VALID,0.582812,
2008-07-22, 09:00:04,VALID,1004.56,VALID,0,VALID,85.0849,VALID,113.938,VALID,26.4102,VALID,205,VALID,0.763281,
2008-07-22, 09:01:04,VALID,1004.58,VALID,0,VALID,85.123,VALID,113.938,VALID,26.4512,VALID,190,VALID,0.842188,
2008-07-22, 09:02:04,VALID,1004.59,VALID,0,VALID,86.0233,VALID,121.882,VALID,26.4317,VALID,193,VALID,0.671875,
2008-07-22, 09:03:04,VALID,1004.57,VALID,0,VALID,85.5884,VALID,127.313,VALID,26.4532,VALID,194,VALID,0.454688,
2008-07-22, 09:04:04,VALID,1004.57,VALID,0,VALID,85.2604,VALID,130.33,VALID,26.4512,VALID,217,VALID,0.865625,
2008-07-22, 09:05:04,VALID,1004.58,VALID,0,VALID,85.1765,VALID,135.358,VALID,26.4317,VALID,200,VALID,0.989062,
2008-07-22, 09:06:04,VALID,1004.53,VALID,0,VALID,85.1688,VALID,139.783,VALID,26.4122,VALID,169,VALID,0.768359,
2008-07-22, 09:07:04,VALID,1004.54,VALID,0,VALID,85.9927,VALID,145.515,VALID,26.4102,VALID,167,VALID,0.952734,
2008-07-22, 09:08:04,VALID,1004.53,VALID,0,VALID,85.0849,VALID,152.956,VALID,26.4317,VALID,156,VALID,0.925781,
2008-07-22, 09:09:04,VALID,1004.53,VALID,0,VALID,85.9927,VALID,159.593,VALID,26.4297,VALID,165,VALID,0.321875,
2008-07-22, 09:10:04,VALID,1004.53,VALID,0,VALID,86.0461,VALID,164.219,VALID,26.4901,VALID,181,VALID,0.432031,
2008-07-22, 09:11:04,VALID,1004.5,VALID,0,VALID,85.4969,VALID,170.052,VALID,26.4707,VALID,184,VALID,0.544141,
2008-07-22, 09:12:04,VALID,1004.5,VALID,0,VALID,84.9705,VALID,176.488,VALID,26.4901,VALID,198,VALID,0.544531,
2008-07-22, 09:13:04,VALID,1004.53,VALID,0,VALID,85.207,VALID,185.338,VALID,26.5486,VALID,200,VALID,0.694531,
2008-07-22, 09:14:04,VALID,1004.52,VALID,0,VALID,83.9177,VALID,198.21,VALID,26.5681,VALID,216,VALID,1.02578,
2008-07-22, 09:15:04,VALID,1004.5,VALID,0,VALID,85.1536,VALID,224.758,VALID,26.5661,VALID,203,VALID,0.74375,
2008-07-22, 09:16:04,VALID,1004.48,VALID,0,VALID,84.5433,VALID,270.313,VALID,26.6265,VALID,213,VALID,0.695313,
2008-07-22, 09:17:04,VALID,1004.49,VALID,0,VALID,85.0468,VALID,388.676,VALID,26.6655,VALID,194,VALID,0.565625,
2008-07-22, 09:18:04,VALID,1004.49,VALID,0,VALID,84.795,VALID,362.027,VALID,26.7045,VALID,185,VALID,0.590625,
2008-07-22, 09:19:04,VALID,1004.48,VALID,0,VALID,84.8026,VALID,329.846,VALID,26.8019,VALID,186,VALID,0.247266,
2008-07-22, 09:20:04,VALID,1004.49,VALID,0,VALID,84.6501,VALID,353.479,VALID,26.8973,VALID,210,VALID,0.0371094,
2008-07-22, 09:21:04,VALID,1004.47,VALID,0,VALID,84.3068,VALID,358.909,VALID,27.0921,VALID,226,VALID,0.127344,
2008-07-22, 09:22:04,VALID,1004.45,VALID,0,VALID,81.5451,VALID,279.867,VALID,27.2695,VALID,288,VALID,0.532031,
2008-07-22, 09:23:04,VALID,1004.45,VALID,0,VALID,80.5381,VALID,503.72,VALID,27.3064,VALID,292,VALID,0.207813,
2008-07-22, 09:24:04,VALID,1004.42,VALID,0,VALID,82.247,VALID,456.355,VALID,27.3865,VALID,242,VALID,0.296875,
2008-07-22, 09:25:04,VALID,1004.39,VALID,0,VALID,80.6373,VALID,362.429,VALID,27.3865,VALID,204,VALID,0.86875,
2008-07-22, 09:26:04,VALID,1004.4,VALID,0,VALID,81.2628,VALID,291.23,VALID,27.2869,VALID,169,VALID,0.969141,
2008-07-22, 09:27:04,VALID,1004.39,VALID,0,VALID,84.0397,VALID,273.431,VALID,27.289,VALID,173,VALID,0.526172,
2008-07-22, 09:28:04,VALID,1004.39,VALID,0,VALID,81.5146,VALID,298.974,VALID,27.2306,VALID,219,VALID,1.10508,
2008-07-22, 09:29:04,VALID,1004.38,VALID,0,VALID,81.7587,VALID,466.21,VALID,27.1506,VALID,225,VALID,0.930859,
2008-07-22, 09:30:04,VALID,1004.4,VALID,0,VALID,82.1859,VALID,591.712,VALID,27.1895,VALID,204,VALID,0.491406,
2008-07-22, 09:31:04,VALID,1004.37,VALID,0,VALID,82.0944,VALID,436.644,VALID,27.2695,VALID,196,VALID,0.475,
2008-07-22, 09:32:04,VALID,1004.38,VALID,0,VALID,81.3315,VALID,397.827,VALID,27.2675,VALID,182,VALID,0.711719,
2008-07-22, 09:33:04,VALID,1004.37,VALID,0,VALID,81.774,VALID,370.373,VALID,27.289,VALID,170,VALID,0.746094,
2008-07-22, 09:34:04,VALID,1004.38,VALID,0,VALID,83.7193,VALID,450.12,VALID,27.3475,VALID,214,VALID,0.456641,
2008-07-22, 09:35:04,VALID,1004.38,VALID,0,VALID,81.2323,VALID,543.241,VALID,27.367,VALID,196,VALID,1.52852,
2008-07-22, 09:36:04,VALID,1004.41,VALID,0,VALID,80.4694,VALID,314.561,VALID,27.3301,VALID,186,VALID,0.96875,
2008-07-22, 09:37:04,VALID,1004.42,VALID,0,VALID,82.7199,VALID,275.14,VALID,27.2911,VALID,164,VALID,0.989062,
2008-07-22, 09:38:04,VALID,1004.44,VALID,0,VALID,81.9265,VALID,291.934,VALID,27.289,VALID,163,VALID,0.090625,
2008-07-22, 09:39:04,VALID,1004.46,VALID,0,VALID,83.0404,VALID,255.028,VALID,27.3865,VALID,163,VALID,0.132422,
2008-07-22, 09:40:04,VALID,1004.44,VALID,0,VALID,80.4542,VALID,263.173,VALID,27.4644,VALID,184,VALID,0.0539063,
2008-07-22, 09:41:04,VALID,1004.44,VALID,0,VALID,80.889,VALID,349.155,VALID,27.5618,VALID,211,VALID,0.265625,
2008-07-22, 09:42:04,VALID,1004.44,VALID,0,VALID,79.8973,VALID,335.579,VALID,27.5813,VALID,163,VALID,0.790234,
2008-07-22, 09:43:04,VALID,1004.43,VALID,0,VALID,79.4166,VALID,733.908,VALID,27.6419,VALID,166,VALID,0.728125,
2008-07-22, 09:44:04,VALID,1004.38,VALID,0,VALID,80.4923,VALID,714.299,VALID,27.7588,VALID,151,VALID,0.366797,
2008-07-22, 09:45:04,VALID,1004.37,VALID,0,VALID,79.6303,VALID,298.37,VALID,27.9127,VALID,186,VALID,0.950781,
2008-07-22, 09:46:04,VALID,1004.36,VALID,0,VALID,79.3938,VALID,322.807,VALID,27.9516,VALID,173,VALID,0.872266,
2008-07-22, 09:47:04,VALID,1004.35,VALID,0,VALID,79.1267,VALID,680.509,VALID,27.9343,VALID,155,VALID,1.21758,
2008-07-22, 09:48:04,VALID,1004.34,VALID,0,VALID,81.5909,VALID,697.102,VALID,27.9711,VALID,139,VALID,0.396875,
2008-07-22, 09:49:04,VALID,1004.38,VALID,0,VALID,78.4554,VALID,353.479,VALID,28.0881,VALID,246,VALID,1.13164,
2008-07-22, 09:50:04,VALID,1004.37,VALID,0,VALID,77.5323,VALID,339.702,VALID,28.0296,VALID,203,VALID,0.95625,
2008-07-22, 09:51:04,VALID,1004.37,VALID,0,VALID,77.5705,VALID,290.225,VALID,27.9321,VALID,223,VALID,1.14609,
2008-07-22, 09:52:04,VALID,1004.32,VALID,0,VALID,78.9208,VALID,347.244,VALID,27.8953,VALID,231,VALID,0.250391,
2008-07-22, 09:53:04,VALID,1004.3,VALID,0,VALID,78.9818,VALID,354.082,VALID,27.9148,VALID,231,VALID,0.177734,
2008-07-22, 09:54:04,VALID,1004.28,VALID,0,VALID,79.6379,VALID,299.074,VALID,27.9538,VALID,167,VALID,1.09102,
2008-07-22, 09:55:04,VALID,1004.28,VALID,0,VALID,79.8057,VALID,325.019,VALID,27.8932,VALID,195,VALID,0.994531,
2008-07-22, 09:56:04,VALID,1004.26,VALID,0,VALID,78.3944,VALID,469.327,VALID,27.8368,VALID,204,VALID,0.878125,
2008-07-22, 09:57:04,VALID,1004.25,VALID,0,VALID,80.8966,VALID,818.582,VALID,27.7957,VALID,217,VALID,1.38906,
2008-07-22, 09:58:04,VALID,1004.26,VALID,0,VALID,78.6843,VALID,814.459,VALID,27.8953,VALID,193,VALID,1.13359,
2008-07-22, 09:59:04,VALID,1004.23,VALID,0,VALID,82.575,VALID,614.942,VALID,28.0122,VALID,164,VALID,1.05195,
2008-07-22, 10:00:04,VALID,1004.21,VALID,0,VALID,76.8915,VALID,419.649,VALID,28.0339,VALID,182,VALID,1.83906,
2008-07-22, 10:01:04,VALID,1004.18,VALID,0,VALID,78.6385,VALID,292.236,VALID,27.8953,VALID,156,VALID,1.72773,
2008-07-22, 10:02:04,VALID,1004.16,VALID,0,VALID,80.9043,VALID,254.525,VALID,27.8758,VALID,206,VALID,1.2207,
2008-07-22, 10:03:04,VALID,1004.2,VALID,0,VALID,78.2723,VALID,237.63,VALID,27.7588,VALID,181,VALID,2.58242,
2008-07-22, 10:04:04,VALID,1004.18,VALID,0,VALID,80.7059,VALID,231.295,VALID,27.5813,VALID,188,VALID,0.830078,
2008-07-22, 10:05:04,VALID,1004.16,VALID,0,VALID,81.6824,VALID,229.183,VALID,27.5813,VALID,198,VALID,0.307422,
2008-07-22, 10:06:04,VALID,1004.15,VALID,0,VALID,79.821,VALID,222.445,VALID,27.5424,VALID,195,VALID,1.43047,
2008-07-22, 10:07:04,VALID,1004.17,VALID,0,VALID,81.5985,VALID,217.115,VALID,27.4839,VALID,182,VALID,1.13242,
2008-07-22, 10:08:04,VALID,1004.14,VALID,0,VALID,81.8503,VALID,218.423,VALID,27.4839,VALID,192,VALID,0.673437,
2008-07-22, 10:09:04,VALID,1004.08,VALID,0,VALID,80.5915,VALID,222.445,VALID,27.4839,VALID,183,VALID,1.61875,
2008-07-22, 10:10:04,VALID,1004.08,VALID,0,VALID,81.3544,VALID,229.284,VALID,27.4254,VALID,164,VALID,1.0875,
2008-07-22, 10:11:04,VALID,1004.05,VALID,0,VALID,80.3397,VALID,231.898,VALID,27.369,VALID,230,VALID,1.08633,